Home   Weather   Zweibrücken   Past weeks

Flag for Germany Past Weather in Zweibrücken, Rhineland-Palatinate, Germany — Yesterday and Last 2 Weeks

Now
36 °F

Passing clouds.


Feels Like: 36 °F
Forecast: 34 / 53 °F
Wind: 1 mph from North

Location: Saarbruecken / Ensheim

Current Time: Apr 28, 2017 at 12:48:55 am

Latest Report: Apr 28, 2017 at 12:20 am


Visibility: N/A

Pressure: 29.95 "Hg

Humidity: 81%

Dew Point: 30 °F

Location of ZweibrückenLocation

Past Weather in Zweibrücken — Graph

°F

Zweibrücken Temperature Yesterday

Maximum temperature yesterday: 50 °F (at 5:20 pm)
Minimum temperature yesterday: 36 °F (at 6:20 am)
Average temperature yesterday: 44 °F

High & Low Weather Summary for the Past Weeks

 TemperatureHumidityPressure
High61 °F (Apr 24, 3:20 pm)100% (Apr 16, 5:50 am)30.57 "Hg (Apr 16, 5:50 am)
Low27 °F (Apr 20, 6:20 am)28% (Apr 20, 5:50 pm)29.74 "Hg (Apr 25, 3:20 am)
Average45 °F64%30.13 "Hg
* Reported Apr 12 11:20 pm — Apr 27 11:50 pm, Zweibrücken, Weather by CustomWeather, © 2017

Note: Actual official high and low records may vary slightly from our data, if they occured in-between our weather recording intervals... More about our weather records

Advertising

Zweibrücken Weather History for the Previous 24 Hours

Scroll right to see more
 ConditionsComfort  
Time TempWeatherWind HumidityBarometerVisibility
11:50 pm
Thu, Apr 27
37 °FPassing clouds.1 mph75%29.95 "HgN/A
11:20 pm39 °FPassing clouds.2 mph70%29.95 "HgN/A
10:50 pm41 °FClear.1 mph70%29.95 "Hg10 mi
10:20 pm43 °FPassing clouds.3 mph66%29.95 "HgN/A
9:50 pm43 °FPassing clouds.5 mph61%29.95 "HgN/A
9:20 pm45 °FPassing clouds.7 mph57%29.95 "HgN/A
8:50 pm45 °FPassing clouds.6 mph53%29.95 "HgN/A
8:20 pm46 °FPassing clouds.3 mph50%29.95 "HgN/A
7:50 pm48 °FPassing clouds.5 mph46%29.92 "HgN/A
7:20 pm48 °FScattered showers. Scattered clouds.5 mph46%29.92 "HgN/A
6:50 pm48 °FScattered clouds.6 mph43%29.95 "HgN/A
6:20 pm48 °FScattered clouds.3 mph46%29.95 "HgN/A
5:50 pm50 °FScattered clouds.6 mph40%29.95 "HgN/A
5:20 pm50 °FScattered clouds.9 mph47%29.95 "HgN/A
4:50 pm46 °FScattered showers. Partly sunny.9 mph53%29.95 "HgN/A
4:20 pm46 °FScattered showers. Partly sunny.10 mph50%29.95 "HgN/A
3:50 pm48 °FScattered showers. Scattered clouds.9 mph50%29.95 "HgN/A
2:50 pm48 °FScattered showers. Broken clouds.10 mph46%29.95 "HgN/A
2:20 pm48 °FScattered clouds.3 mph46%29.98 "HgN/A
1:50 pm46 °FScattered clouds.5 mph50%29.98 "HgN/A
1:20 pm46 °FScattered clouds.8 mph53%29.98 "HgN/A
12:50 pm46 °FScattered clouds.9 mph53%29.98 "HgN/A
12:20 pm46 °FPartly sunny.5 mph53%29.98 "HgN/A
11:50 am46 °FPartly sunny.5 mph50%29.98 "HgN/A
11:20 am46 °FPartly sunny.5 mph46%29.98 "HgN/A
10:50 am46 °FScattered clouds.3 mph53%29.98 "HgN/A
10:20 am46 °FScattered clouds.5 mph57%29.98 "HgN/A
9:50 am45 °FScattered clouds.3 mph61%29.98 "HgN/A
9:20 am45 °FPassing clouds.6 mph61%29.98 "HgN/A
8:50 am43 °FScattered clouds.3 mph66%29.98 "HgN/A
8:20 am41 °FScattered clouds.3 mph70%29.98 "HgN/A
7:50 am39 °FScattered clouds.2 mph81%29.95 "HgN/A
6:50 am37 °FBroken clouds.3 mph81%29.95 "HgN/A
6:20 am36 °FBroken clouds.5 mph87%29.95 "HgN/A
5:50 am37 °FPartly cloudy.3 mph81%29.95 "HgN/A
4:50 am39 °FLight rain. Partly cloudy.1 mph75%29.92 "HgN/A
3:50 am39 °FPassing clouds.1 mph75%29.92 "HgN/A
3:20 am39 °FOvercast.3 mph75%29.92 "HgN/A
2:50 am39 °FPassing clouds.2 mph75%29.92 "HgN/A
2:20 am39 °FPassing clouds.1 mph75%29.92 "HgN/A
1:50 am39 °FPassing clouds.2 mph75%29.92 "HgN/A
1:20 am41 °FPassing clouds.5 mph66%29.92 "HgN/A
12:50 am41 °FPassing clouds.8 mph66%29.95 "HgN/A
12:20 am41 °FPassing clouds.8 mph66%29.92 "HgN/A
Weather by CustomWeather, © 2017

See weather overviewHow to use our weather pages